Year,Month,Day,Hour,Minute,Value (Times are PST for temperature in C)
2018,05,29,00,00,10.50
2018,05,29,00,01,10.40
2018,05,29,00,02,10.40
2018,05,29,00,03,10.30
2018,05,29,00,04,10.30
2018,05,29,00,05,10.30
2018,05,29,00,06,10.30
2018,05,29,00,07,10.30
2018,05,29,00,08,10.20
2018,05,29,00,09,10.20
2018,05,29,00,10,10.10
2018,05,29,00,11,10.10
2018,05,29,00,12,10.10
2018,05,29,00,13,10.10
2018,05,29,00,14,10.10
2018,05,29,00,15,10.10
2018,05,29,00,16,10.10
2018,05,29,00,17,10.20
2018,05,29,00,18,10.20
2018,05,29,00,19,10.20
2018,05,29,00,20,10.20
2018,05,29,00,21,10.30
2018,05,29,00,22,10.30
2018,05,29,00,23,10.30
2018,05,29,00,24,10.30
2018,05,29,00,25,10.30
2018,05,29,00,26,10.30
2018,05,29,00,27,10.20
2018,05,29,00,28,10.20
2018,05,29,00,29,10.20
2018,05,29,00,30,10.20
2018,05,29,00,31,10.20
2018,05,29,00,32,10.20
2018,05,29,00,33,10.20
2018,05,29,00,34,10.20
2018,05,29,00,35,10.20
2018,05,29,00,36,10.20
2018,05,29,00,37,10.20
2018,05,29,00,38,10.20
2018,05,29,00,39,10.20
2018,05,29,00,40,10.20
2018,05,29,00,41,10.20
2018,05,29,00,42,10.20
2018,05,29,00,43,10.10
2018,05,29,00,44,10.10
2018,05,29,00,45,10.10
2018,05,29,00,46,10.20
2018,05,29,00,47,10.20
2018,05,29,00,48,10.10
2018,05,29,00,49,10.10
2018,05,29,00,50,10.10
2018,05,29,00,51,10.10
2018,05,29,00,52,10.10
2018,05,29,00,53,10.10
2018,05,29,00,54,10.10
2018,05,29,00,55,10.10
2018,05,29,00,56,10.10
2018,05,29,00,57,10.10
2018,05,29,00,58,10.10
2018,05,29,00,59,10.10
2018,05,29,01,00,10.10
2018,05,29,01,01,10.10
2018,05,29,01,02,10.10
2018,05,29,01,03,10.00
2018,05,29,01,04,10.00
2018,05,29,01,05,10.00
2018,05,29,01,06,10.00
2018,05,29,01,07,9.90
2018,05,29,01,08,9.90
2018,05,29,01,09,9.90
2018,05,29,01,10,9.90
2018,05,29,01,11,9.90
2018,05,29,01,12,9.90
2018,05,29,01,13,9.90
2018,05,29,01,14,9.90
2018,05,29,01,15,9.90
2018,05,29,01,16,9.90
2018,05,29,01,17,9.90
2018,05,29,01,18,9.90
2018,05,29,01,19,9.90
2018,05,29,01,20,9.90
2018,05,29,01,21,9.90
2018,05,29,01,22,9.90
2018,05,29,01,23,9.80
2018,05,29,01,24,9.80
2018,05,29,01,25,9.80
2018,05,29,01,26,9.90
2018,05,29,01,27,9.90
2018,05,29,01,28,9.90
2018,05,29,01,29,9.90
2018,05,29,01,30,9.90
2018,05,29,01,31,9.90
2018,05,29,01,32,9.90
2018,05,29,01,33,9.90
2018,05,29,01,34,9.90
2018,05,29,01,35,9.80
2018,05,29,01,36,9.80
2018,05,29,01,37,9.80
2018,05,29,01,38,9.80
2018,05,29,01,39,9.80
2018,05,29,01,40,9.80
2018,05,29,01,41,9.80
2018,05,29,01,42,9.80
2018,05,29,01,43,9.80
2018,05,29,01,44,9.80
2018,05,29,01,45,9.80
2018,05,29,01,46,9.80
2018,05,29,01,47,9.80
2018,05,29,01,48,9.80
2018,05,29,01,49,9.90
2018,05,29,01,50,9.90
2018,05,29,01,51,9.80
2018,05,29,01,52,9.80
2018,05,29,01,53,9.90
2018,05,29,01,54,9.90
2018,05,29,01,55,9.80
2018,05,29,01,56,9.80
2018,05,29,01,57,9.80
2018,05,29,01,58,9.80
2018,05,29,01,59,9.80
2018,05,29,02,00,9.80
2018,05,29,02,01,9.80
2018,05,29,02,02,9.70
2018,05,29,02,03,9.70
2018,05,29,02,04,9.70
2018,05,29,02,05,9.60
2018,05,29,02,06,9.60
2018,05,29,02,07,9.60
2018,05,29,02,08,9.50
2018,05,29,02,09,9.50
2018,05,29,02,10,9.40
2018,05,29,02,11,9.40
2018,05,29,02,12,9.30
2018,05,29,02,13,9.30
2018,05,29,02,14,9.30
2018,05,29,02,15,9.30
2018,05,29,02,16,9.40
2018,05,29,02,17,9.40
2018,05,29,02,18,9.40
2018,05,29,02,19,9.40
2018,05,29,02,20,9.40
2018,05,29,02,21,9.40
2018,05,29,02,22,9.40
2018,05,29,02,23,9.40
2018,05,29,02,24,9.40
2018,05,29,02,25,9.40
2018,05,29,02,26,9.50
2018,05,29,02,27,9.50
2018,05,29,02,28,9.50
2018,05,29,02,29,9.60
2018,05,29,02,30,9.60
2018,05,29,02,31,9.60
2018,05,29,02,32,9.60
2018,05,29,02,33,9.70
2018,05,29,02,34,9.70
2018,05,29,02,35,9.70
2018,05,29,02,36,9.60
2018,05,29,02,37,9.60
2018,05,29,02,38,9.60
2018,05,29,02,39,9.50
2018,05,29,02,40,9.50
2018,05,29,02,41,9.50
2018,05,29,02,42,9.50
2018,05,29,02,43,9.40
2018,05,29,02,44,9.40
2018,05,29,02,45,9.40
2018,05,29,02,46,9.40
2018,05,29,02,47,9.50
2018,05,29,02,48,9.50
2018,05,29,02,49,9.50
2018,05,29,02,50,9.50
2018,05,29,02,51,9.60
2018,05,29,02,52,9.60
2018,05,29,02,53,9.60
2018,05,29,02,54,9.50
2018,05,29,02,55,9.50
2018,05,29,02,56,9.50
2018,05,29,02,57,9.50
2018,05,29,02,58,9.50
2018,05,29,02,59,9.50
2018,05,29,03,00,9.40
2018,05,29,03,01,9.40
2018,05,29,03,02,9.40
2018,05,29,03,03,9.40
2018,05,29,03,04,9.40
2018,05,29,03,05,9.40
2018,05,29,03,06,9.40
2018,05,29,03,07,9.30
2018,05,29,03,08,9.30
2018,05,29,03,09,9.30
2018,05,29,03,10,9.30
2018,05,29,03,11,9.30
2018,05,29,03,12,9.20
2018,05,29,03,13,9.20
2018,05,29,03,14,9.20
2018,05,29,03,15,9.20
2018,05,29,03,16,9.20
2018,05,29,03,17,9.20
2018,05,29,03,18,9.20
2018,05,29,03,19,9.20
2018,05,29,03,20,9.20
2018,05,29,03,21,9.20
2018,05,29,03,22,9.20
2018,05,29,03,23,9.20
2018,05,29,03,24,9.20
2018,05,29,03,25,9.20
2018,05,29,03,26,9.20
2018,05,29,03,27,9.20
2018,05,29,03,28,9.20
2018,05,29,03,29,9.20
2018,05,29,03,30,9.30
2018,05,29,03,31,9.30
2018,05,29,03,32,9.30
2018,05,29,03,33,9.30
2018,05,29,03,34,9.20
2018,05,29,03,35,9.20
2018,05,29,03,36,9.20
2018,05,29,03,37,9.10
2018,05,29,03,38,9.00
2018,05,29,03,39,8.90
2018,05,29,03,40,8.80
2018,05,29,03,41,8.80
2018,05,29,03,42,8.80
2018,05,29,03,43,8.80
2018,05,29,03,44,8.80
2018,05,29,03,45,8.80
2018,05,29,03,46,8.80
2018,05,29,03,47,8.80
2018,05,29,03,48,8.90
2018,05,29,03,49,8.90
2018,05,29,03,50,9.00
2018,05,29,03,51,9.00
2018,05,29,03,52,9.00
2018,05,29,03,53,9.00
2018,05,29,03,54,9.10
2018,05,29,03,55,9.10
2018,05,29,03,56,9.10
2018,05,29,03,57,9.10
2018,05,29,03,58,9.10
2018,05,29,03,59,9.10
2018,05,29,04,00,9.10
2018,05,29,04,01,9.10
2018,05,29,04,02,9.10
2018,05,29,04,03,9.10
2018,05,29,04,04,9.10
2018,05,29,04,05,9.00
2018,05,29,04,06,9.00
2018,05,29,04,07,9.00
2018,05,29,04,08,9.00
2018,05,29,04,09,9.10
2018,05,29,04,10,9.10
2018,05,29,04,11,9.10
2018,05,29,04,12,9.10
2018,05,29,04,13,9.00
2018,05,29,04,14,9.00
2018,05,29,04,15,8.90
2018,05,29,04,16,8.90
2018,05,29,04,17,8.80
2018,05,29,04,18,8.80
2018,05,29,04,19,8.70
2018,05,29,04,20,8.70
2018,05,29,04,21,8.70
2018,05,29,04,22,8.70
2018,05,29,04,23,8.60
2018,05,29,04,24,8.60
2018,05,29,04,25,8.60
2018,05,29,04,26,8.50
2018,05,29,04,27,8.50
2018,05,29,04,28,8.40
2018,05,29,04,29,8.40
2018,05,29,04,30,8.30
2018,05,29,04,31,8.30
2018,05,29,04,32,8.20
2018,05,29,04,33,8.20
2018,05,29,04,34,8.20
2018,05,29,04,35,8.20
2018,05,29,04,36,8.20
2018,05,29,04,37,8.20
2018,05,29,04,38,8.20
2018,05,29,04,39,8.20
2018,05,29,04,40,8.20
2018,05,29,04,41,8.20
2018,05,29,04,42,8.20
2018,05,29,04,43,8.20
2018,05,29,04,44,8.20
2018,05,29,04,45,8.20
2018,05,29,04,46,8.20
2018,05,29,04,47,8.20
2018,05,29,04,48,8.20
2018,05,29,04,49,8.10
2018,05,29,04,50,8.10
2018,05,29,04,51,8.10
2018,05,29,04,52,8.00
2018,05,29,04,53,8.00
2018,05,29,04,54,7.90
2018,05,29,04,55,7.90
2018,05,29,04,56,7.80
2018,05,29,04,57,7.80
2018,05,29,04,58,7.80
2018,05,29,04,59,7.70
2018,05,29,05,00,7.70
2018,05,29,05,01,7.70
2018,05,29,05,02,7.60
2018,05,29,05,03,7.60
2018,05,29,05,04,7.50
2018,05,29,05,05,7.50
2018,05,29,05,06,7.40
2018,05,29,05,07,7.40
2018,05,29,05,08,7.40
2018,05,29,05,09,7.30
2018,05,29,05,10,7.30
2018,05,29,05,11,7.30
2018,05,29,05,12,7.30
2018,05,29,05,13,7.20
2018,05,29,05,14,7.20
2018,05,29,05,15,7.20
2018,05,29,05,16,7.20
2018,05,29,05,17,7.20
2018,05,29,05,18,7.10
2018,05,29,05,19,7.10
2018,05,29,05,20,7.10
2018,05,29,05,21,7.10
2018,05,29,05,22,7.10
2018,05,29,05,23,7.10
2018,05,29,05,24,7.10
2018,05,29,05,25,7.10
2018,05,29,05,26,7.10
2018,05,29,05,27,7.10
2018,05,29,05,28,7.00
2018,05,29,05,29,7.00
2018,05,29,05,30,7.00
2018,05,29,05,31,7.00
2018,05,29,05,32,7.00
2018,05,29,05,33,7.00
2018,05,29,05,34,6.90
2018,05,29,05,35,6.90
2018,05,29,05,36,6.90
2018,05,29,05,37,6.90
2018,05,29,05,38,6.80
2018,05,29,05,39,6.80
2018,05,29,05,40,6.80
2018,05,29,05,41,6.80
2018,05,29,05,42,6.70
2018,05,29,05,43,6.70
2018,05,29,05,44,6.70
2018,05,29,05,45,6.70
2018,05,29,05,46,6.70
2018,05,29,05,47,6.70
2018,05,29,05,48,6.70
2018,05,29,05,49,6.70
2018,05,29,05,50,6.70
2018,05,29,05,51,6.70
2018,05,29,05,52,6.70
2018,05,29,05,53,6.70
2018,05,29,05,54,6.70
2018,05,29,05,55,6.70
2018,05,29,05,56,6.70
2018,05,29,05,57,6.70
2018,05,29,05,58,6.70
2018,05,29,05,59,6.70
2018,05,29,06,00,6.70
2018,05,29,06,01,6.70
2018,05,29,06,02,6.70
2018,05,29,06,03,6.70
2018,05,29,06,04,6.70
2018,05,29,06,05,6.70
2018,05,29,06,06,6.60
2018,05,29,06,07,6.60
2018,05,29,06,08,6.60
2018,05,29,06,09,6.60
2018,05,29,06,10,6.60
2018,05,29,06,11,6.60
2018,05,29,06,12,6.60
2018,05,29,06,13,6.50
2018,05,29,06,14,6.50
2018,05,29,06,15,6.50
2018,05,29,06,16,6.50
2018,05,29,06,17,6.40
2018,05,29,06,18,6.40
2018,05,29,06,19,6.40
2018,05,29,06,20,6.40
2018,05,29,06,21,6.40
2018,05,29,06,22,6.30
2018,05,29,06,23,6.30
2018,05,29,06,24,6.30
2018,05,29,06,25,6.30
2018,05,29,06,26,6.30
2018,05,29,06,27,6.30
2018,05,29,06,28,6.30
2018,05,29,06,29,6.30
2018,05,29,06,30,6.30
2018,05,29,06,31,6.20
2018,05,29,06,32,6.20
2018,05,29,06,33,6.20
2018,05,29,06,34,6.20
2018,05,29,06,35,6.20
2018,05,29,06,36,6.20
2018,05,29,06,37,6.20
2018,05,29,06,38,6.20
2018,05,29,06,39,6.20
2018,05,29,06,40,6.20
2018,05,29,06,41,6.20
2018,05,29,06,42,6.20
2018,05,29,06,43,6.20
2018,05,29,06,44,6.20
2018,05,29,06,45,6.20
2018,05,29,06,46,6.20
2018,05,29,06,47,6.20
2018,05,29,06,48,6.10
2018,05,29,06,49,6.10
2018,05,29,06,50,6.10
2018,05,29,06,51,6.10
2018,05,29,06,52,6.10
2018,05,29,06,53,6.10
2018,05,29,06,54,6.10
2018,05,29,06,55,6.10
2018,05,29,06,56,6.10
2018,05,29,06,57,6.00
2018,05,29,06,58,6.10
2018,05,29,06,59,6.10
2018,05,29,07,00,6.10
2018,05,29,07,01,6.00
2018,05,29,07,02,6.00
2018,05,29,07,03,6.00
2018,05,29,07,04,6.00
2018,05,29,07,05,6.00
2018,05,29,07,06,6.00
2018,05,29,07,07,6.00
2018,05,29,07,08,6.00
2018,05,29,07,09,6.00
2018,05,29,07,10,6.00
2018,05,29,07,11,6.00
2018,05,29,07,12,6.00
2018,05,29,07,13,6.00
2018,05,29,07,14,6.10
2018,05,29,07,15,6.10
2018,05,29,07,16,6.10
2018,05,29,07,17,6.10
2018,05,29,07,18,6.10
2018,05,29,07,19,6.10
2018,05,29,07,20,6.10
2018,05,29,07,21,6.10
2018,05,29,07,22,6.10
2018,05,29,07,23,6.10
2018,05,29,07,24,6.10
2018,05,29,07,25,6.00
2018,05,29,07,26,6.00
2018,05,29,07,27,6.00
2018,05,29,07,28,6.00
2018,05,29,07,29,5.90
2018,05,29,07,30,5.90
2018,05,29,07,31,5.90
2018,05,29,07,32,5.90
2018,05,29,07,33,5.90
2018,05,29,07,34,5.80
2018,05,29,07,35,5.80
2018,05,29,07,36,5.80
2018,05,29,07,37,5.80
2018,05,29,07,38,5.80
2018,05,29,07,39,5.80
2018,05,29,07,40,5.80
2018,05,29,07,41,5.80
2018,05,29,07,42,5.80
2018,05,29,07,43,5.80
2018,05,29,07,44,5.80
2018,05,29,07,45,5.80
2018,05,29,07,46,5.80
2018,05,29,07,47,5.80
2018,05,29,07,48,5.80
2018,05,29,07,49,5.80
2018,05,29,07,50,5.80
2018,05,29,07,51,5.80
2018,05,29,07,52,5.80
2018,05,29,07,53,5.80
2018,05,29,07,54,5.80
2018,05,29,07,55,5.80
2018,05,29,07,56,5.80
2018,05,29,07,57,5.80
2018,05,29,07,58,5.80
2018,05,29,07,59,5.80
2018,05,29,08,00,5.80
2018,05,29,08,01,5.80
2018,05,29,08,02,5.80
2018,05,29,08,03,5.80
2018,05,29,08,04,5.80
2018,05,29,08,05,5.80
2018,05,29,08,06,5.80
2018,05,29,08,07,5.80
2018,05,29,08,08,5.80
2018,05,29,08,09,5.80
2018,05,29,08,10,5.80
2018,05,29,08,11,5.80
2018,05,29,08,12,5.90
2018,05,29,08,13,5.90
2018,05,29,08,14,5.90
2018,05,29,08,15,5.90
2018,05,29,08,16,5.90
2018,05,29,08,17,6.00
2018,05,29,08,18,6.00
2018,05,29,08,19,6.00
2018,05,29,08,20,6.10
2018,05,29,08,21,6.10
2018,05,29,08,22,6.10
2018,05,29,08,23,6.10
2018,05,29,08,24,6.20
2018,05,29,08,25,6.20
2018,05,29,08,26,6.20
2018,05,29,08,27,6.30
2018,05,29,08,28,6.30
2018,05,29,08,29,6.30
2018,05,29,08,30,6.30
2018,05,29,08,31,6.40
2018,05,29,08,32,6.40
2018,05,29,08,33,6.40
2018,05,29,08,34,6.40
2018,05,29,08,35,6.50
2018,05,29,08,36,6.50
2018,05,29,08,37,6.50
2018,05,29,08,38,6.60
2018,05,29,08,39,6.60
2018,05,29,08,40,6.70
2018,05,29,08,41,6.80
2018,05,29,08,42,6.90
2018,05,29,08,43,6.90
2018,05,29,08,44,7.00
2018,05,29,08,45,7.10
2018,05,29,08,46,7.20
2018,05,29,08,47,7.30
2018,05,29,08,48,7.40
2018,05,29,08,49,7.60
2018,05,29,08,50,7.70
2018,05,29,08,51,7.80
2018,05,29,08,52,7.80
2018,05,29,08,53,7.90
2018,05,29,08,54,8.00
2018,05,29,08,55,8.10
2018,05,29,08,56,8.20
2018,05,29,08,57,8.30
2018,05,29,08,58,8.30
2018,05,29,08,59,8.40
2018,05,29,09,00,8.50
2018,05,29,09,01,8.50
2018,05,29,09,02,8.60
2018,05,29,09,03,8.70
2018,05,29,09,04,8.70
2018,05,29,09,05,8.80
2018,05,29,09,06,8.70
2018,05,29,09,07,8.80
2018,05,29,09,08,9.00
2018,05,29,09,09,9.20
2018,05,29,09,10,9.30
2018,05,29,09,11,9.40
2018,05,29,09,12,9.50
2018,05,29,09,13,9.70
2018,05,29,09,14,9.90
2018,05,29,09,15,10.00
2018,05,29,09,16,10.10
2018,05,29,09,17,10.20
2018,05,29,09,18,10.30
2018,05,29,09,19,10.30
2018,05,29,09,20,10.30
2018,05,29,09,21,10.30
2018,05,29,09,22,10.30
2018,05,29,09,23,10.40
2018,05,29,09,24,10.50
2018,05,29,09,25,10.60
2018,05,29,09,26,10.80
2018,05,29,09,27,10.90
2018,05,29,09,28,10.90
2018,05,29,09,29,10.90
2018,05,29,09,30,11.00
2018,05,29,09,31,11.20
2018,05,29,09,32,11.20
2018,05,29,09,33,11.30
2018,05,29,09,34,11.20
2018,05,29,09,35,11.20
2018,05,29,09,36,11.30
2018,05,29,09,37,11.40
2018,05,29,09,38,11.50
2018,05,29,09,39,11.60
2018,05,29,09,40,11.70
2018,05,29,09,41,11.80
2018,05,29,09,42,11.80
2018,05,29,09,43,11.90
2018,05,29,09,44,12.00
2018,05,29,09,45,12.20
2018,05,29,09,46,12.30
2018,05,29,09,47,12.40
2018,05,29,09,48,12.50
2018,05,29,09,49,12.60
2018,05,29,09,50,12.70
2018,05,29,09,51,12.80
2018,05,29,09,52,12.90
2018,05,29,09,53,13.00
2018,05,29,09,54,13.10
2018,05,29,09,55,13.20
2018,05,29,09,56,13.20
2018,05,29,09,57,13.20
2018,05,29,09,58,13.10
2018,05,29,09,59,13.10
2018,05,29,10,00,13.10
2018,05,29,10,01,13.10
2018,05,29,10,02,13.10
2018,05,29,10,03,13.10
2018,05,29,10,04,13.10
2018,05,29,10,05,13.20
2018,05,29,10,06,13.20
2018,05,29,10,07,13.20
2018,05,29,10,08,13.20
2018,05,29,10,09,13.20
2018,05,29,10,10,13.20
2018,05,29,10,11,13.20
2018,05,29,10,12,13.20
2018,05,29,10,13,13.20
2018,05,29,10,14,13.20
2018,05,29,10,15,13.20
2018,05,29,10,16,13.10
2018,05,29,10,17,13.00
2018,05,29,10,18,13.00
2018,05,29,10,19,13.00
2018,05,29,10,20,12.90
2018,05,29,10,21,12.90
2018,05,29,10,22,12.80
2018,05,29,10,23,12.80
2018,05,29,10,24,12.80
2018,05,29,10,25,12.70
2018,05,29,10,26,12.70
2018,05,29,10,27,12.70
2018,05,29,10,28,12.80
2018,05,29,10,29,12.80
2018,05,29,10,30,12.90
2018,05,29,10,31,12.90
2018,05,29,10,32,12.90
2018,05,29,10,33,12.90
2018,05,29,10,34,12.90
2018,05,29,10,35,12.90
2018,05,29,10,36,12.90
2018,05,29,10,37,12.90
2018,05,29,10,38,12.90
2018,05,29,10,39,13.00
2018,05,29,10,40,13.10
2018,05,29,10,41,13.20
2018,05,29,10,42,13.20
2018,05,29,10,43,13.20
2018,05,29,10,44,13.20
2018,05,29,10,45,13.20
2018,05,29,10,46,13.20
2018,05,29,10,47,13.20
2018,05,29,10,48,13.20
2018,05,29,10,49,13.20
2018,05,29,10,50,13.20
2018,05,29,10,51,13.30
2018,05,29,10,52,13.40
2018,05,29,10,53,13.40
2018,05,29,10,54,13.40
2018,05,29,10,55,13.50
2018,05,29,10,56,13.60
2018,05,29,10,57,13.60
2018,05,29,10,58,13.70
2018,05,29,10,59,13.70
2018,05,29,11,00,13.70
2018,05,29,11,01,13.70
2018,05,29,11,02,13.70
2018,05,29,11,03,13.80
2018,05,29,11,04,13.80
2018,05,29,11,05,13.80
2018,05,29,11,06,13.70
2018,05,29,11,07,13.70
2018,05,29,11,08,13.70
2018,05,29,11,09,13.70
2018,05,29,11,10,13.60
2018,05,29,11,11,13.50
2018,05,29,11,12,13.50
2018,05,29,11,13,13.40
2018,05,29,11,14,13.40
2018,05,29,11,15,13.40
2018,05,29,11,16,13.50
2018,05,29,11,17,13.60
2018,05,29,11,18,13.70
2018,05,29,11,19,13.80
2018,05,29,11,20,13.80
2018,05,29,11,21,13.80
2018,05,29,11,22,13.80
2018,05,29,11,23,13.80
2018,05,29,11,24,13.70
2018,05,29,11,25,13.70
2018,05,29,11,26,13.70
2018,05,29,11,27,13.70
2018,05,29,11,28,13.70
2018,05,29,11,29,13.70
2018,05,29,11,30,13.60
2018,05,29,11,31,13.60
2018,05,29,11,32,13.50
2018,05,29,11,33,13.40
2018,05,29,11,34,13.40
2018,05,29,11,35,13.40
2018,05,29,11,36,13.40
2018,05,29,11,37,13.50
2018,05,29,11,38,13.50
2018,05,29,11,39,13.60
2018,05,29,11,40,13.70
2018,05,29,11,41,13.70
2018,05,29,11,42,13.80
2018,05,29,11,43,13.90
2018,05,29,11,44,14.00
2018,05,29,11,45,14.00
2018,05,29,11,46,14.10
2018,05,29,11,47,14.10
2018,05,29,11,48,14.10
2018,05,29,11,49,14.10
2018,05,29,11,50,14.10
2018,05,29,11,51,14.00
2018,05,29,11,52,14.10
2018,05,29,11,53,14.10
2018,05,29,11,54,14.30
2018,05,29,11,55,14.30
2018,05,29,11,56,14.30
2018,05,29,11,57,14.30
2018,05,29,11,58,14.30
2018,05,29,11,59,14.30
2018,05,29,12,00,14.30
2018,05,29,12,01,14.30
2018,05,29,12,02,14.30
2018,05,29,12,03,14.40
2018,05,29,12,04,14.50
2018,05,29,12,05,14.50
2018,05,29,12,06,14.50
2018,05,29,12,07,14.60
2018,05,29,12,08,14.60
2018,05,29,12,09,14.60
2018,05,29,12,10,14.70
2018,05,29,12,11,14.70
2018,05,29,12,12,14.80
2018,05,29,12,13,14.90
2018,05,29,12,14,14.90
2018,05,29,12,15,14.90
2018,05,29,12,16,14.90
2018,05,29,12,17,14.90
2018,05,29,12,18,14.90
2018,05,29,12,19,14.80
2018,05,29,12,20,14.80
2018,05,29,12,21,14.80
2018,05,29,12,22,14.80
2018,05,29,12,23,14.80
2018,05,29,12,24,14.90
2018,05,29,12,25,15.00
2018,05,29,12,26,15.10
2018,05,29,12,27,15.20
2018,05,29,12,28,15.20
2018,05,29,12,29,15.30
2018,05,29,12,30,15.30
2018,05,29,12,31,15.30
2018,05,29,12,32,15.30
2018,05,29,12,33,15.30
2018,05,29,12,34,15.20
2018,05,29,12,35,15.20
2018,05,29,12,36,15.20
2018,05,29,12,37,15.20
2018,05,29,12,38,15.20
2018,05,29,12,39,15.20
2018,05,29,12,40,15.10
2018,05,29,12,41,15.10
2018,05,29,12,42,15.00
2018,05,29,12,43,15.00
2018,05,29,12,44,15.00
2018,05,29,12,45,15.00
2018,05,29,12,46,14.90
2018,05,29,12,47,14.90
2018,05,29,12,48,15.00
2018,05,29,12,49,15.00
2018,05,29,12,50,15.20
2018,05,29,12,51,15.30
2018,05,29,12,52,15.50
2018,05,29,12,53,15.80
2018,05,29,12,54,15.90
2018,05,29,12,55,16.00
2018,05,29,12,56,16.10
2018,05,29,12,57,16.30
2018,05,29,12,58,16.30
2018,05,29,12,59,16.30
2018,05,29,13,00,16.30
2018,05,29,13,01,16.30
2018,05,29,13,02,16.20
2018,05,29,13,03,16.10
2018,05,29,13,04,16.00
2018,05,29,13,05,15.80
2018,05,29,13,06,15.70
2018,05,29,13,07,15.50
2018,05,29,13,08,15.40
2018,05,29,13,09,15.30
2018,05,29,13,10,15.30
2018,05,29,13,11,15.30
2018,05,29,13,12,15.20
2018,05,29,13,13,15.10
2018,05,29,13,14,15.10
2018,05,29,13,15,15.10
2018,05,29,13,16,15.10
2018,05,29,13,17,15.10
2018,05,29,13,18,15.10
2018,05,29,13,19,15.10
2018,05,29,13,20,15.10
2018,05,29,13,21,15.10
2018,05,29,13,22,15.10
2018,05,29,13,23,15.00
2018,05,29,13,24,14.90
2018,05,29,13,25,14.80
2018,05,29,13,26,14.70
2018,05,29,13,27,14.70
2018,05,29,13,28,14.60
2018,05,29,13,29,14.60
2018,05,29,13,30,14.50
2018,05,29,13,31,14.40
2018,05,29,13,32,14.40
2018,05,29,13,33,14.30
2018,05,29,13,34,14.30
2018,05,29,13,35,14.20
2018,05,29,13,36,14.20
2018,05,29,13,37,14.20
2018,05,29,13,38,14.20
2018,05,29,13,39,14.20
2018,05,29,13,40,14.30
2018,05,29,13,41,14.30
2018,05,29,13,42,14.40
2018,05,29,13,43,14.40
2018,05,29,13,44,14.50
2018,05,29,13,45,14.50
2018,05,29,13,46,14.40
2018,05,29,13,47,14.40
2018,05,29,13,48,14.40
2018,05,29,13,49,14.50
2018,05,29,13,50,14.60
2018,05,29,13,51,14.80
2018,05,29,13,52,15.00
2018,05,29,13,53,15.10
2018,05,29,13,54,15.20
2018,05,29,13,55,15.30
2018,05,29,13,56,15.40
2018,05,29,13,57,15.50
2018,05,29,13,58,15.60
2018,05,29,13,59,15.60
2018,05,29,14,00,15.50
2018,05,29,14,01,15.40
2018,05,29,14,02,15.40
2018,05,29,14,03,15.50
2018,05,29,14,04,15.70
2018,05,29,14,05,15.90
2018,05,29,14,06,15.90
2018,05,29,14,07,16.00
2018,05,29,14,08,16.00
2018,05,29,14,09,16.10
2018,05,29,14,10,16.20
2018,05,29,14,11,16.20
2018,05,29,14,12,16.20
2018,05,29,14,13,16.30
2018,05,29,14,14,16.20
2018,05,29,14,15,16.20
2018,05,29,14,16,16.20
2018,05,29,14,17,16.20
2018,05,29,14,18,16.10
2018,05,29,14,19,16.10
2018,05,29,14,20,16.10
2018,05,29,14,21,16.10
2018,05,29,14,22,16.10
2018,05,29,14,23,16.00
2018,05,29,14,24,16.00
2018,05,29,14,25,15.90
2018,05,29,14,26,15.70
2018,05,29,14,27,15.50
2018,05,29,14,28,15.30
2018,05,29,14,29,15.10
2018,05,29,14,30,14.90
2018,05,29,14,31,14.80
2018,05,29,14,32,14.70
2018,05,29,14,33,14.60
2018,05,29,14,34,14.60
2018,05,29,14,35,14.60
2018,05,29,14,36,14.70
2018,05,29,14,37,14.80
2018,05,29,14,38,14.80
2018,05,29,14,39,14.90
2018,05,29,14,40,15.00
2018,05,29,14,41,15.10
2018,05,29,14,42,15.10
2018,05,29,14,43,15.10
2018,05,29,14,44,15.10
2018,05,29,14,45,15.10
2018,05,29,14,46,15.10
2018,05,29,14,47,15.10
2018,05,29,14,48,15.10
2018,05,29,14,49,15.20
2018,05,29,14,50,15.30
2018,05,29,14,51,15.30
2018,05,29,14,52,15.30
2018,05,29,14,53,15.40
2018,05,29,14,54,15.40
2018,05,29,14,55,15.40
2018,05,29,14,56,15.40
2018,05,29,14,57,15.40
2018,05,29,14,58,15.50
2018,05,29,14,59,15.50
2018,05,29,15,00,15.50
2018,05,29,15,01,15.50
2018,05,29,15,02,15.40
2018,05,29,15,03,15.30
2018,05,29,15,04,15.30
2018,05,29,15,05,15.20
2018,05,29,15,06,15.10
2018,05,29,15,07,15.00
2018,05,29,15,08,14.80
2018,05,29,15,09,14.70
2018,05,29,15,10,14.60
2018,05,29,15,11,14.60
2018,05,29,15,12,14.50
2018,05,29,15,13,14.50
2018,05,29,15,14,14.50
2018,05,29,15,15,14.40
2018,05,29,15,16,14.40
2018,05,29,15,17,14.40
2018,05,29,15,18,14.30
2018,05,29,15,19,14.30
2018,05,29,15,20,14.20
2018,05,29,15,21,14.20
2018,05,29,15,22,14.20
2018,05,29,15,23,14.30
2018,05,29,15,24,14.40
2018,05,29,15,25,14.50
2018,05,29,15,26,14.60
2018,05,29,15,27,14.70
2018,05,29,15,28,14.80
2018,05,29,15,29,15.00
2018,05,29,15,30,15.10
2018,05,29,15,31,15.30
2018,05,29,15,32,15.40
2018,05,29,15,33,15.60
2018,05,29,15,34,15.60
2018,05,29,15,35,15.70
2018,05,29,15,36,15.70
2018,05,29,15,37,15.80
2018,05,29,15,38,15.70
2018,05,29,15,39,15.70
2018,05,29,15,40,15.70
2018,05,29,15,41,15.70
2018,05,29,15,42,15.60
2018,05,29,15,43,15.50
2018,05,29,15,44,15.40
2018,05,29,15,45,15.30
2018,05,29,15,46,15.20
2018,05,29,15,47,15.10
2018,05,29,15,48,14.90
2018,05,29,15,49,14.80
2018,05,29,15,50,14.80
2018,05,29,15,51,14.70
2018,05,29,15,52,14.60
2018,05,29,15,53,14.50
2018,05,29,15,54,14.40
2018,05,29,15,55,14.30
2018,05,29,15,56,14.20
2018,05,29,15,57,14.10
2018,05,29,15,58,14.00
2018,05,29,15,59,13.90
2018,05,29,16,00,13.80
2018,05,29,16,01,13.70
2018,05,29,16,02,13.70
2018,05,29,16,03,13.60
2018,05,29,16,04,13.60
2018,05,29,16,05,13.60
2018,05,29,16,06,13.60
2018,05,29,16,07,13.50
2018,05,29,16,08,13.60
2018,05,29,16,09,13.60
2018,05,29,16,10,13.60
2018,05,29,16,11,13.70
2018,05,29,16,12,13.80
2018,05,29,16,13,13.90
2018,05,29,16,14,14.00
2018,05,29,16,15,14.00
2018,05,29,16,16,14.10
2018,05,29,16,17,14.20
2018,05,29,16,18,14.40
2018,05,29,16,19,14.50
2018,05,29,16,20,14.70
2018,05,29,16,21,14.80
2018,05,29,16,22,14.90
2018,05,29,16,23,15.00
2018,05,29,16,24,15.00
2018,05,29,16,25,15.10
2018,05,29,16,26,15.20
2018,05,29,16,27,15.30
2018,05,29,16,28,15.40
2018,05,29,16,29,15.50
2018,05,29,16,30,15.60
2018,05,29,16,31,15.60
2018,05,29,16,32,15.50
2018,05,29,16,33,15.50
2018,05,29,16,34,15.50
2018,05,29,16,35,15.50
2018,05,29,16,36,15.60
2018,05,29,16,37,15.70
2018,05,29,16,38,15.80
2018,05,29,16,39,15.80
2018,05,29,16,40,15.80
2018,05,29,16,41,15.80
2018,05,29,16,42,15.90
2018,05,29,16,43,15.90
2018,05,29,16,44,16.00
2018,05,29,16,45,16.00
2018,05,29,16,46,16.10
2018,05,29,16,47,16.20
2018,05,29,16,48,16.20
2018,05,29,16,49,16.20
2018,05,29,16,50,16.20
2018,05,29,16,51,16.20
2018,05,29,16,52,16.20
2018,05,29,16,53,16.20
2018,05,29,16,54,16.10
2018,05,29,16,55,16.10
2018,05,29,16,56,16.20
2018,05,29,16,57,16.20
2018,05,29,16,58,16.20
2018,05,29,16,59,16.20
2018,05,29,17,00,16.20
2018,05,29,17,01,16.20
2018,05,29,17,02,16.10
2018,05,29,17,03,16.10
2018,05,29,17,04,15.90
2018,05,29,17,05,15.80
2018,05,29,17,06,15.70
2018,05,29,17,07,15.50
2018,05,29,17,08,15.40
2018,05,29,17,09,15.30
2018,05,29,17,10,15.30
2018,05,29,17,11,15.20
2018,05,29,17,12,15.30
2018,05,29,17,13,15.30
2018,05,29,17,14,15.40
2018,05,29,17,15,15.50
2018,05,29,17,16,15.60
2018,05,29,17,17,15.60
2018,05,29,17,18,15.70
2018,05,29,17,19,15.70
2018,05,29,17,20,15.70
2018,05,29,17,21,15.70
2018,05,29,17,22,15.70
2018,05,29,17,23,15.70
2018,05,29,17,24,15.60
2018,05,29,17,25,15.50
2018,05,29,17,26,15.40
2018,05,29,17,27,15.30
2018,05,29,17,28,15.30
2018,05,29,17,29,15.30
2018,05,29,17,30,15.30
2018,05,29,17,31,15.20
2018,05,29,17,32,15.30
2018,05,29,17,33,15.20
2018,05,29,17,34,15.20
2018,05,29,17,35,15.20
2018,05,29,17,36,15.20
2018,05,29,17,37,15.20
2018,05,29,17,38,15.20
2018,05,29,17,39,15.10
2018,05,29,17,40,15.10